This demonstration page uses our WeatherBlox Daily Observations layout. Learn more.

36.17497, -115.13722

Hourly Observations for February 19, 2018

Temp ( °F °C ) Dew Point ( °F °C ) Humidity (%) Winds ( mph kmh ) Pressure ( in mb ) Visibility ( mi km ) Precip ( " mm )
12:53 am 00:53 Clear 54 12.2 24 -4.4 31 31 S 8 13 29.5 999 10 16.0934 0 0
1:53 am 01:53 Clear 53 11.7 21 -6.1 28 28 undefined N/A 29.52 1000 10 16.0934 0 0
2:53 am 02:53 Clear 50 10 20 -6.7 30 30 W 24 39 29.53 1000 10 16.0934 0 0
3:53 am 03:53 Clear 48 8.9 18 -7.8 30 30 W 26 43 29.54 1000 10 16.0934 0 0
4:53 am 04:53 Clear 46 7.8 14 -10 27 27 W 29 46 29.56 1001 10 16.0934 0 0
5:53 am 05:53 Clear 44 6.7 13 -10.6 28 28 WSW 18 30 29.6 1002 10 16.0934 0 0
6:53 am 06:53 Partly Cloudy 44 6.7 16 -8.9 32 32 NNW 17 28 29.64 1004 10 16.0934 0 0
7:01 am 07:01 Partly Cloudy 44 6.7 16 -8.9 32 32 NNW 24 39 29.65 1004 10 16.0934 0 0
7:53 am 07:53 Sunny 44 6.7 14 -10 30 30 WNW 13 20 29.69 1005 10 16.0934 0 0
8:53 am 08:53 Partly Cloudy 46 7.8 5 -15 18 18 NNW 22 35 29.69 1005 10 16.0934 0 0
9:53 am 09:53 Mostly Sunny 48 8.9 -3 -19.4 12 12 NNW 21 33 29.7 1006 10 16.0934 0 0
10:53 am 10:53 Mostly Cloudy 48 8.9 -6 -21.1 10 10 NNW 22 35 29.71 1006 10 16.0934 0 0
11:53 am 11:53 Mostly Sunny 49 9.4 -4 -20 11 11 N 21 33 29.7 1006 10 16.0934 0 0
12:53 pm 12:53 Cloudy 48 8.9 -7 -21.7 9 9 N 20 31 29.7 1006 10 16.0934 0 0
1:53 pm 13:53 Cloudy 48 8.9 -9 -22.8 9 9 N 18 30 29.71 1006 10 16.0934 0 0
2:53 pm 14:53 Mostly Sunny 50 10 -7 -21.7 9 9 N 20 31 29.73 1007 10 16.0934 0 0
3:53 pm 15:53 Partly Cloudy 50 10 -9 -22.8 8 8 NNW 13 20 29.75 1007 10 16.0934 0 0
4:53 pm 16:53 Mostly Sunny 48 8.9 -7 -21.7 9 9 NNW 17 28 29.79 1009 10 16.0934 0 0
5:53 pm 17:53 Clear 46 7.8 -9 -22.8 9 9 NNW 20 31 29.82 1010 10 16.0934 0 0
6:53 pm 18:53 Clear 45 7.2 -6 -21.1 11 11 NNW 20 31 29.85 1011 10 16.0934 0 0
7:53 pm 19:53 Clear 43 6.1 -1 -18.3 16 16 NNW 18 30 29.89 1012 10 16.0934 0 0
8:53 pm 20:53 Clear 41 5 4 -15.6 21 21 NNW 20 31 29.94 1014 10 16.0934 0 0
9:53 pm 21:53 Clear 40 4.4 2 -16.7 20 20 NNW 14 22 29.97 1015 10 16.0934 0 0
10:53 pm 22:53 Clear 39 3.9 -1 -18.3 18 18 NNW 15 24 29.99 1016 10 16.0934 0 0
11:53 pm 23:53 Clear 39 3.9 1 -17.2 20 20 NNW 18 30 30.02 1017 10 16.0934 0 0

Powered by AerisWeather